Regional Weather Roundup
Issued by NWS Bismarck, ND

Home | Current Version | Previous Version | Text Only | Print | Product List | Glossary On
Versions: 1 2 3 4 5 6 7 8 9 10 11 12 13 14 15 16 17 18 19 20 21 22 23 24 25 26 27 28 29 30 31 32 33 34 35 36 37 38 39 40 41 42 43 44 45 46 47 48 49 50
000
ASUS43 KBIS 211710
RWRBIS

NWR BROADCAST TEXT
NATIONAL WEATHER SERVICE BISMARCK ND
1100 AM CST SUN JAN 21 2018

NOTE: "FAIR" INDICATES FEW OR NO CLOUDS BELOW 12,000 FEET WITH NO
SIGNIFICANT WEATHER AND/OR OBSTRUCTIONS TO VISIBILITY.


CITY           SKY/WX    TMP DP  RH WIND       PRES   REMARKS
WILLISTON      FAIR      17  15  92 S5        30.03R WCI  10
MINOT          FAIR      22  16  78 S5        30.03R WCI  16
MINOT AFB      SUNNY     20  16  84 CALM      30.02R
BISMARCK       FAIR      19  18  95 CALM      30.08R
DICKINSON      FAIR      28  18  66 W7        30.01R
GARRISON         N/A     17  12  80 CALM      30.04R
HETTINGER ARPT CLOUDY    25  19  78 W6        30.04R WCI  18
JAMESTOWN      FAIR      23  21  92 N7        30.06R WCI  15
CARRINGTON     FOG       21  21 100 S3        30.10R VSB<1/4
LINTON           N/A     21  19  93 CALM      30.07S
OAKES            N/A     27  27 100 N10       30.06R WCI  17
TIOGA          FAIR       9   9 100 CALM      30.01S
$$

CITY           SKY/WX    TMP DP  RH WIND       PRES   REMARKS
GRAND FORKS    CLOUDY    24  22  91 N8        30.11R WCI  15
GRAND FORKS AF CLOUDY    23  21  89 NE7       30.10R WCI  15
DEVILS LAKE    FOG       19  18  95 S3        30.08R VSB<1/4
FARGO          CLOUDY    20  19  96 N8        30.08R FOG     WCI  10
CANDO          CLOUDY    18  18 100 CALM      30.09R FOG
CAVALIER         N/A     21  21 100 N8        30.10R WCI  12
GWINNER          N/A     27  25  93 N9        30.06R WCI  17
ROLLA          FOG       19  21 100 CALM      30.04R VSB<1/4
WALHALLA       FAIR      21  21 100 N7        30.10S FOG     WCI  13
$$

CITY           SKY/WX    TMP DP  RH WIND       PRES   REMARKS
ABERDEEN       PTSUNNY   27  23  85 N9        30.06R WCI  18
MOBRIDGE       CLOUDY    29  23  78 NW7       30.02R
BUFFALO          N/A     26  19  74 W9        29.95S WCI  17
RAPID CITY     CLOUDY    32  25  75 N12       30.01R
GLASGOW        SUNNY     11   8  88 SE5       30.03R WCI   3
SIDNEY         SUNNY     18  15  88 S9        30.04R WCI   7
WOLF POINT     SUNNY     13   8  81 SW9       30.04S WCI   1
GLENDIVE       SUNNY     16  11  80 S8        30.04R WCI   5
MILES CITY     PTSUNNY   13  11  92 S6        30.08R WCI   4
BAKER          CLOUDY    24  18  77 W13       30.04R WCI  12
$$

CITY           SKY/WX    TMP DP  RH WIND       PRES   REMARKS
BILLINGS       MOSUNNY   24  16  71 SW16      30.08R WCI  11
GREAT FALLS    SUNNY     30  16  56 S13       30.02R WCI  20
REGINA         MOSUNNY   12  10  92 SE7       29.95R WCI   2
ESTEVAN        MOSUNNY   16  12  86 S7        30.00R WCI   6
$$




USA.gov is the U.S. government's official web portal to all federal, state and local government web resources and services.